| time (UTC) | temp C | wind direction | speed KPH | gust KPH | rain 1hr cm | rain 24hr cm | rain mn cm | humidity % | barometer mb |
| 20260906095003 | 18 | 123 | 0.0 | 0.0 | 0.00 | 0.36 | 0.00 | 98 | 951.6 |
| 20260906094503 | 18 | 123 | 0.0 | 0.0 | 0.00 | 0.36 | 0.00 | 98 | 951.6 |
| 20260906093503 | 18 | 123 | 0.0 | 0.0 | 0.00 | 0.36 | 0.00 | 98 | 951.6 |
| 20260906093004 | 18 | 123 | 0.0 | 0.0 | 0.00 | 0.36 | 0.00 | 98 | 951.6 |
| 20260906092003 | 18 | 123 | 0.0 | 0.0 | 0.00 | 0.36 | 0.00 | 98 | 951.4 |
| 20260906091503 | 18 | 123 | 0.0 | 0.0 | 0.00 | 0.36 | 0.00 | 98 | 951.4 |
| 20260906091003 | 18 | 123 | 0.0 | 0.0 | 0.00 | 0.36 | 0.00 | 98 | 951.4 |
| 20260906084503 | 19 | 123 | 0.0 | 0.0 | 0.00 | 0.36 | 0.00 | 98 | 951.4 |
| 20260906084003 | 19 | 125 | 0.0 | 0.0 | 0.00 | 0.36 | 0.00 | 98 | 951.4 |
| 20260906083503 | 19 | 126 | 0.0 | 0.0 | 0.00 | 0.36 | 0.00 | 98 | 951.5 |
| 20260906083003 | 19 | 224 | 0.0 | 0.0 | 0.00 | 0.36 | 0.00 | 98 | 951.5 |
| 20260906082503 | 19 | 224 | 0.0 | 0.0 | 0.00 | 0.36 | 0.00 | 98 | 951.5 |
| 20260906082003 | 19 | 224 | 0.0 | 0.0 | 0.00 | 0.36 | 0.00 | 98 | 951.5 |
| 20260906081004 | 19 | 224 | 0.0 | 0.0 | 0.00 | 0.36 | 0.00 | 98 | 951.5 |
| 20260906080503 | 19 | 224 | 0.0 | 0.0 | 0.00 | 0.36 | 0.00 | 98 | 951.7 |
| 20260906080003 | 19 | 224 | 0.0 | 0.0 | 0.00 | 0.36 | 0.00 | 98 | 951.7 |
| 20260906075003 | 19 | 224 | 0.0 | 0.0 | 0.00 | 0.36 | 0.00 | 98 | 951.4 |
| 20260906074503 | 19 | 224 | 0.0 | 0.0 | 0.00 | 0.36 | 0.00 | 98 | 951.4 |
| 20260906073503 | 20 | 224 | 0.0 | 0.0 | 0.00 | 0.36 | 0.00 | 98 | 951.8 |
| 20260906072003 | 20 | 224 | 0.0 | 0.0 | 0.00 | 0.36 | 0.00 | 98 | 951.9 |
| 20260906071503 | 20 | 224 | 0.0 | 0.0 | 0.00 | 0.36 | 0.00 | 98 | 951.9 |
| 20260906070004 | 20 | 224 | 0.0 | 0.0 | 0.00 | 0.36 | 0.00 | 97 | 951.6 |
| 20260906064004 | 20 | 224 | 0.0 | 0.0 | 0.00 | 0.36 | 0.00 | 97 | 951.6 |
| 20260906061004 | 20 | 224 | 0.0 | 0.0 | 0.00 | 0.36 | 0.00 | 97 | 952.0 |
| 20260906060504 | 20 | 224 | 0.0 | 0.0 | 0.00 | 0.36 | 0.00 | 97 | 952.2 |
| 20260906054503 | 20 | 224 | 0.0 | 0.0 | 0.00 | 0.36 | 0.00 | 97 | 952.4 |
| 20260906054005 | 20 | 224 | 0.0 | 0.0 | 0.00 | 0.36 | 0.00 | 97 | 952.4 |
| 20260906053504 | 20 | 224 | 0.0 | 0.0 | 0.00 | 0.36 | 0.00 | 97 | 952.3 |
| 20260906052503 | 20 | 224 | 0.0 | 0.0 | 0.00 | 0.36 | 0.00 | 97 | 952.3 |
| 20260906051004 | 20 | 224 | 0.0 | 0.0 | 0.00 | 0.36 | 0.00 | 97 | 952.5 |
| 20260906050003 | 20 | 224 | 0.0 | 0.0 | 0.00 | 0.36 | 0.00 | 96 | 952.6 |
| 20260906045504 | 20 | 224 | 0.0 | 0.0 | 0.00 | 0.36 | 0.00 | 96 | 952.6 |
| 20260906044003 | 20 | 224 | 0.0 | 0.0 | 0.00 | 0.36 | 0.00 | 96 | 952.2 |
| 20260906043503 | 20 | 224 | 0.0 | 0.0 | 0.00 | 0.36 | 0.00 | 96 | 952.4 |
| 20260906043004 | 20 | 224 | 0.0 | 0.0 | 0.00 | 0.36 | 0.00 | 96 | 952.4 |
| 20260906042504 | 20 | 224 | 0.0 | 0.0 | 0.00 | 0.36 | 0.00 | 96 | 952.4 |
| 20260906041503 | 20 | 224 | 0.0 | 0.0 | 0.00 | 0.36 | 0.00 | 96 | 952.2 |
| 20260906041004 | 20 | 224 | 0.0 | 0.0 | 0.00 | 0.36 | 0.00 | 96 | 952.2 |
| 20260906040504 | 21 | 224 | 0.0 | 0.0 | 0.00 | 0.36 | 0.00 | 96 | 952.6 |
| 20260906040004 | 21 | 224 | 0.0 | 0.0 | 0.00 | 0.36 | 0.00 | 95 | 952.6 |
| 20260906035004 | 21 | 224 | 0.0 | 0.0 | 0.00 | 0.36 | 0.36 | 95 | 952.5 |
| 20260906034504 | 21 | 224 | 0.0 | 0.0 | 0.00 | 0.36 | 0.36 | 95 | 952.5 |
| 20260906022503 | 21 | 224 | 0.0 | 0.0 | 0.00 | 0.36 | 0.36 | 93 | 952.5 |
| 20260906022003 | 21 | 224 | 0.0 | 0.0 | 0.00 | 0.36 | 0.36 | 93 | 952.6 |
| 20260906014503 | 22 | 224 | 0.0 | 0.0 | 0.00 | 0.36 | 0.36 | 91 | 952.5 |
| 20260906013003 | 22 | 224 | 0.0 | 0.0 | 0.00 | 0.36 | 0.36 | 90 | 952.2 |
| 20260906012003 | 22 | 224 | 0.0 | 0.0 | 0.00 | 0.36 | 0.36 | 88 | 952.1 |
| 20260906011503 | 22 | 224 | 0.0 | 0.0 | 0.00 | 0.36 | 0.36 | 89 | 952.1 |
| 20260906011002 | 22 | 224 | 0.0 | 0.0 | 0.00 | 0.36 | 0.36 | 88 | 952.1 |
| 20260906010503 | 22 | 224 | 0.0 | 0.0 | 0.00 | 0.36 | 0.36 | 89 | 951.9 |
| 20260906004503 | 23 | 224 | 0.0 | 0.0 | 0.00 | 0.36 | 0.36 | 89 | 952.0 |
| 20260906004003 | 23 | 224 | 0.0 | 0.0 | 0.00 | 0.36 | 0.36 | 88 | 952.0 |
| 20260906003003 | 23 | 224 | 0.0 | 0.0 | 0.00 | 0.36 | 0.36 | 87 | 951.9 |
| 20260906001003 | 24 | 224 | 0.0 | 1.6 | 0.00 | 0.36 | 0.36 | 83 | 951.8 |
| 20260906000503 | 24 | 224 | 0.0 | 1.6 | 0.00 | 0.36 | 0.36 | 83 | 951.7 |
| 20260906000003 | 24 | 224 | 0.0 | 0.0 | 0.00 | 0.36 | 0.36 | 82 | 951.7 |
| 20260905235503 | 25 | 224 | 0.0 | 0.0 | 0.00 | 0.36 | 0.36 | 81 | 951.7 |
| 20260905234503 | 25 | 224 | 0.0 | 0.0 | 0.00 | 0.36 | 0.36 | 80 | 951.5 |
| 20260905233503 | 25 | 224 | 0.0 | 1.6 | 0.00 | 0.36 | 0.36 | 80 | 951.5 |
| 20260905233003 | 25 | 224 | 0.0 | 1.6 | 0.00 | 0.36 | 0.36 | 78 | 951.5 |
| 20260905232503 | 26 | 224 | 0.0 | 0.0 | 0.00 | 0.36 | 0.36 | 77 | 951.5 |
| 20260905231503 | 26 | 224 | 0.0 | 0.0 | 0.00 | 0.36 | 0.36 | 77 | 951.5 |
| 20260905230504 | 26 | 224 | 0.0 | 0.0 | 0.00 | 0.36 | 0.36 | 77 | 951.9 |
| 20260905225003 | 26 | 224 | 0.0 | 1.6 | 0.00 | 0.36 | 0.36 | 77 | 952.1 |
| 20260905224004 | 27 | 224 | 1.6 | 3.2 | 0.00 | 0.36 | 0.36 | 74 | 952.1 |
| 20260905221504 | 27 | 192 | 1.6 | 3.2 | 0.05 | 0.36 | 0.36 | 70 | 952.1 |
| 20260905221003 | 27 | 244 | 1.6 | 4.8 | 0.05 | 0.36 | 0.36 | 72 | 952.1 |
| 20260905214504 | 28 | 234 | 0.0 | 4.8 | 0.05 | 0.36 | 0.36 | 67 | 952.0 |
| 20260905213501 | 28 | 198 | 3.2 | 9.7 | 0.05 | 0.36 | 0.36 | 67 | 952.0 |
| 20260905213001 | 28 | 285 | 3.2 | 9.7 | 0.05 | 0.36 | 0.36 | 66 | 952.0 |
| 20260905212501 | 28 | 252 | 3.2 | 9.7 | 0.05 | 0.36 | 0.36 | 67 | 952.0 |
| 20260905212002 | 28 | 236 | 0.0 | 8.0 | 0.00 | 0.30 | 0.30 | 69 | 952.0 |
| 20260905210501 | 27 | 206 | 1.6 | 8.0 | 0.00 | 0.30 | 0.30 | 69 | 952.0 |
| 20260905210002 | 27 | 206 | 3.2 | 8.0 | 0.00 | 0.30 | 0.30 | 70 | 952.0 |
| 20260905204502 | 27 | 245 | 3.2 | 9.7 | 0.00 | 0.30 | 0.30 | 69 | 951.9 |
| 20260905203501 | 26 | 252 | 3.2 | 8.0 | 0.00 | 0.30 | 0.30 | 71 | 952.0 |
| 20260905203004 | 26 | 224 | 3.2 | 8.0 | 0.00 | 0.30 | 0.30 | 73 | 952.0 |
| 20260905202503 | 26 | 335 | 3.2 | 8.0 | 0.00 | 0.30 | 0.30 | 74 | 952.0 |
| 20260905201001 | 25 | 318 | 4.8 | 11.3 | 0.00 | 0.30 | 0.30 | 74 | 951.7 |
| 20260905194501 | 25 | 252 | 4.8 | 14.5 | 0.00 | 0.30 | 0.30 | 78 | 952.2 |
| 20260905194001 | 25 | 266 | 1.6 | 14.5 | 0.00 | 0.30 | 0.30 | 77 | 952.2 |
| 20260905193502 | 25 | 224 | 1.6 | 12.9 | 0.00 | 0.30 | 0.30 | 80 | 952.4 |
| 20260905193002 | 24 | 267 | 0.0 | 9.7 | 0.00 | 0.30 | 0.30 | 79 | 952.4 |
| 20260905191502 | 23 | 258 | 3.2 | 9.7 | 0.00 | 0.30 | 0.30 | 87 | 952.5 |
| 20260905191002 | 23 | 262 | 3.2 | 9.7 | 0.00 | 0.30 | 0.30 | 87 | 952.5 |
| 20260905190002 | 22 | 193 | 0.0 | 8.0 | 0.00 | 0.30 | 0.30 | 93 | 952.9 |
| 20260905185002 | 22 | 197 | 3.2 | 8.0 | 0.00 | 0.30 | 0.30 | 96 | 953.1 |
| 20260905184502 | 21 | 249 | 3.2 | 8.0 | 0.00 | 0.30 | 0.30 | 97 | 953.1 |
| 20260905183002 | 21 | 283 | 1.6 | 8.0 | 0.00 | 0.30 | 0.30 | 98 | 953.6 |
| 20260905182002 | 20 | 297 | 3.2 | 4.8 | 0.00 | 0.30 | 0.30 | 97 | 954.0 |
| 20260905181502 | 20 | 300 | 3.2 | 8.0 | 0.00 | 0.30 | 0.30 | 97 | 954.0 |
| 20260905181002 | 20 | 251 | 1.6 | 8.0 | 0.00 | 0.30 | 0.30 | 97 | 954.0 |
| 20260905174501 | 20 | 249 | 0.0 | 8.0 | 0.03 | 0.30 | 0.30 | 97 | 954.9 |
| 20260905174003 | 20 | 270 | 0.0 | 8.0 | 0.05 | 0.30 | 0.30 | 97 | 954.9 |
| 20260905173002 | 20 | 297 | 0.0 | 0.0 | 0.05 | 0.30 | 0.30 | 97 | 954.9 |
| 20260905171502 | 20 | 299 | 0.0 | 3.2 | 0.05 | 0.30 | 0.30 | 96 | 955.1 |
| 20260905171003 | 20 | 251 | 0.0 | 0.0 | 0.05 | 0.30 | 0.30 | 96 | 955.1 |
| 20260905170502 | 20 | 251 | 0.0 | 0.0 | 0.05 | 0.30 | 0.30 | 96 | 955.2 |
| 20260905165502 | 20 | 244 | 0.0 | 3.2 | 0.18 | 0.30 | 0.30 | 95 | 955.2 |
| 20260905164502 | 20 | 5 | 1.6 | 4.8 | 0.28 | 0.28 | 0.28 | 94 | 954.9 |
| 20260905163002 | 21 | 328 | 3.2 | 8.0 | 0.25 | 0.25 | 0.25 | 93 | 955.6 |
| 20260905162002 | 21 | 194 | 1.6 | 8.0 | 0.25 | 0.25 | 0.25 | 89 | 955.1 |
| 20260905161002 | 24 | 92 | 8.0 | 3.2 | 0.25 | 0.25 | 0.25 | 81 | 955.1 |
| 20260905160002 | 24 | 92 | 8.0 | 20.9 | 0.25 | 0.25 | 0.25 | 81 | 956.1 |
| 20260905154502 | 26 | 16 | 0.0 | 8.0 | 0.00 | 0.00 | 0.00 | 81 | 954.9 |
| 20260905153002 | 27 | 196 | 0.0 | 3.2 | 0.00 | 0.00 | 0.00 | 78 | 954.8 |
| 20260905151503 | 26 | 245 | 0.0 | 4.8 | 0.00 | 0.00 | 0.00 | 79 | 954.8 |
| 20260905151002 | 26 | 214 | 0.0 | 4.8 | 0.00 | 0.00 | 0.00 | 80 | 954.8 |
| 20260905145502 | 26 | 207 | 0.0 | 8.0 | 0.00 | 0.00 | 0.00 | 82 | 954.3 |
| 20260905144502 | 25 | 197 | 3.2 | 4.8 | 0.00 | 0.00 | 0.00 | 83 | 954.2 |
| 20260905143003 | 25 | 196 | 1.6 | 9.7 | 0.00 | 0.00 | 0.00 | 87 | 954.2 |
| 20260905141503 | 23 | 252 | 0.0 | 4.8 | 0.00 | 0.00 | 0.00 | 92 | 954.3 |
| 20260905141003 | 23 | 252 | 0.0 | 4.8 | 0.00 | 0.00 | 0.00 | 92 | 954.3 |
| 20260905134502 | 22 | 172 | 0.0 | 3.2 | 0.00 | 0.00 | 0.00 | 96 | 954.4 |
| 20260905132003 | 21 | 178 | 0.0 | 0.0 | 0.00 | 0.00 | 0.00 | 99 | 954.5 |
| 20260905130003 | 20 | 133 | 0.0 | 0.0 | 0.00 | 0.00 | 0.00 | 99 | 954.7 |
| 20260905124503 | 20 | 132 | 0.0 | 0.0 | 0.00 | 0.00 | 0.00 | 99 | 954.7 |
| 20260905123003 | 20 | 132 | 0.0 | 0.0 | 0.00 | 0.00 | 0.00 | 98 | 954.7 |
| 20260905122503 | 19 | 132 | 0.0 | 0.0 | 0.00 | 0.00 | 0.00 | 98 | 954.7 |
| 20260905121503 | 19 | 132 | 0.0 | 0.0 | 0.00 | 0.00 | 0.00 | 98 | 954.5 |
| 20260905120002 | 19 | 132 | 0.0 | 0.0 | 0.00 | 0.00 | 0.00 | 98 | 954.1 |
| 20260905114503 | 19 | 132 | 0.0 | 0.0 | 0.00 | 0.00 | 0.00 | 98 | 954.3 |
| 20260905114002 | 19 | 132 | 0.0 | 0.0 | 0.00 | 0.00 | 0.00 | 98 | 954.3 |
| 20260905112503 | 19 | 132 | 0.0 | 0.0 | 0.00 | 0.00 | 0.00 | 98 | 954.0 |
| 20260905111003 | 19 | 132 | 0.0 | 0.0 | 0.00 | 0.00 | 0.00 | 97 | 954.1 |
| 20260905110003 | 19 | 132 | 0.0 | 0.0 | 0.00 | 0.00 | 0.00 | 97 | 953.9 |
| 20260905105003 | 19 | 132 | 0.0 | 0.0 | 0.00 | 0.00 | 0.00 | 97 | 953.8 |
| 20260905104003 | 19 | 132 | 0.0 | 0.0 | 0.00 | 0.00 | 0.00 | 98 | 953.8 |
| 20260905101003 | 19 | 189 | 0.0 | 0.0 | 0.00 | 0.00 | 0.00 | 97 | 953.6 |
| 20260905100502 | 20 | 189 | 0.0 | 0.0 | 0.00 | 0.00 | 0.00 | 97 | 953.7 |